New Orleans Lakefront, LA

6:48 AM CST on December 12, 2017 (GMT -0600)
Lakefront

Weather History for KNEW - December, 2013

Change the Weather History Date:

Sunday, December 8, 2013

  Actual Average Record
Temperature  
Mean Temperature 48 °F 57 °F  
Max Temperature 52 °F 66 °F 82 °F (1978)
Min Temperature 44 °F 48 °F 27 °F (1984)
Degree Days  
Heating Degree Days 17 9  
Month to date heating degree days 49 68  
Since 1 July heating degree days 249 232  
Cooling Degree Days 0 1  
Month to date cooling degree days 26 8  
Year to date cooling degree days 2985 2986  
Moisture  
Dew Point 49 °F    
Average Humidity 96    
Maximum Humidity 100    
Minimum Humidity 92    
Precipitation  
Precipitation T in 0.17 in 4.29 in (2009)
Month to date precipitation 0.36 1.33  
Year to date precipitation 63.53 58.54  
Snow  
Snow 0.00 in - - ()
Month to date snowfall 0.0  
Since 1 July snowfall 0.0  
Snow Depth 0.00 in    
Sea Level Pressure  
Sea Level Pressure 30.10 in    
Wind  
Wind Speed 7 mph (NNE)    
Max Wind Speed 12 mph    
Max Gust Speed 14 mph    
Visibility 2 miles    
Events Fog    
T = Trace of Precipitation, MM = Missing Value Source: NWS Daily Summary

Daily Weather History Graph

Daily Weather History Graph

Search for Another Location

Airport or City:

Trip Planner

Search our weather history database for the weather conditions in past years. The results will help you decide how hot, cold, wet, or windy it might be!

Date:

Astronomy

Dec. 08, 2013 Rise Set
Actual Time 6:43 AM CST 5:00 PM CST
Civil Twilight 6:17 AM CST 5:26 PM CST
Nautical Twilight 5:48 AM CST 5:56 PM CST
Astronomical Twilight 5:18 AM CST 6:25 PM CST
Moon 11:24 AM CST (12/8) 11:27 PM CST (12/8)
Length of Visible Light 11h 08m
Length of Day
10h 16m
Waxing Crescent, 40% of the Moon is Illuminated
Dec 8
Waxing Crescent
Dec 9
First Quarter
Dec 17
Full
Dec 25
Last Quarter
Jan 1
New

Hourly Weather History & Observations

Time (CST) Temp. Windchill Dew Point Humidity Pressure Visibility Wind Dir Wind Speed Gust Speed Precip Events Conditions
12:53 AM 45.0 °F 40.6 °F 43.0 °F 93% 30.22 in 4.0 mi NNE 8.1 mph - N/A   Overcast
1:53 AM 45.0 °F 40.1 °F 43.0 °F 93% 30.19 in 6.0 mi NE 9.2 mph - N/A   Overcast
2:53 AM 46.0 °F 41.0 °F 44.1 °F 93% 30.17 in 4.0 mi ENE 10.4 mph - N/A   Overcast
3:53 AM 46.0 °F 41.9 °F 44.1 °F 93% 30.16 in 8.0 mi NE 8.1 mph - N/A   Overcast
4:53 AM 46.9 °F - 45.0 °F 93% 30.15 in 9.0 mi ENE 6.9 mph - N/A   Overcast
5:53 AM 46.9 °F - 45.0 °F 93% 30.15 in 7.0 mi NE 8.1 mph - N/A   Overcast
6:53 AM 46.9 °F - 45.0 °F 93% 30.14 in 8.0 mi ENE 8.1 mph - N/A   Overcast
7:53 AM 48.0 °F - 45.0 °F 89% 30.15 in 6.0 mi NNE 9.2 mph - N/A   Overcast
8:07 AM 48.2 °F - 46.4 °F 93% 30.17 in 6.0 mi NE 8.1 mph - N/A   Overcast
8:53 AM 48.9 °F - 46.0 °F 90% 30.14 in 5.0 mi NNE 9.2 mph - N/A   Overcast
9:04 AM 48.2 °F - 46.4 °F 93% 30.16 in 4.0 mi NE 9.2 mph - N/A   Overcast
9:36 AM 48.2 °F - 46.4 °F 93% 30.16 in 2.5 mi NE 8.1 mph - N/A   Overcast
9:53 AM 48.9 °F - 46.9 °F 93% 30.14 in 1.5 mi NE 8.1 mph - N/A   Overcast
10:25 AM 48.2 °F - 46.4 °F 93% 30.14 in 0.8 mi NE 9.2 mph - N/A   Overcast
10:53 AM 48.9 °F - 48.0 °F 97% 30.12 in 0.8 mi NE 8.1 mph - N/A   Overcast
11:53 AM 50.0 °F - 48.0 °F 93% 30.09 in 0.2 mi NE 4.6 mph - N/A Fog Fog
12:03 PM 50.0 °F - 48.2 °F 94% 30.10 in 0.5 mi NE 6.9 mph - N/A Fog Fog
12:13 PM 50.0 °F - 48.2 °F 94% 30.10 in 0.2 mi NE 4.6 mph - N/A Fog Fog
12:53 PM 51.1 °F - 48.9 °F 92% 30.04 in 0.2 mi ENE 6.9 mph - N/A Fog Fog
1:53 PM 51.1 °F - 50.0 °F 96% 30.04 in 0.2 mi North 5.8 mph - N/A Fog Fog
2:53 PM 51.1 °F - 50.0 °F 96% 30.05 in 0.2 mi North 8.1 mph - N/A Fog Fog
3:53 PM 51.1 °F - 50.0 °F 96% 30.04 in 0.2 mi North 5.8 mph - N/A Fog Fog
4:53 PM 52.0 °F - 51.1 °F 97% 30.02 in 0.2 mi ENE 8.1 mph - N/A Fog Fog
5:07 PM 51.8 °F - 51.8 °F 100% 30.04 in 0.5 mi ENE 6.9 mph - N/A Fog Fog
5:53 PM 53.1 °F - 52.0 °F 96% 30.03 in 0.5 mi NE 5.8 mph - N/A Fog Fog
6:53 PM 53.1 °F - 53.1 °F 100% 30.03 in 0.5 mi East 6.9 mph - N/A Fog Fog
7:53 PM 54.0 °F - 53.1 °F 97% 30.04 in 0.2 mi ENE 3.5 mph - N/A Fog Fog
8:05 PM 53.6 °F - 53.6 °F 100% 30.07 in 0.5 mi North 4.6 mph - N/A Fog Fog
8:24 PM 53.6 °F - 53.6 °F 100% 30.07 in 0.2 mi East 3.5 mph - N/A Fog Fog
8:46 PM 55.4 °F - 53.6 °F 94% 30.09 in 0.5 mi NW 10.4 mph - N/A Fog Fog
8:53 PM 54.0 °F - 53.1 °F 97% 30.06 in 0.5 mi NNW 9.2 mph - N/A Fog Fog
9:53 PM 53.1 °F - 52.0 °F 96% 30.06 in 0.5 mi North 4.6 mph - N/A Fog Fog
10:34 PM 53.6 °F - 53.6 °F 100% 30.08 in 0.2 mi NNW 3.5 mph - N/A Fog Fog
10:53 PM 54.0 °F - 53.1 °F 97% 30.07 in 0.2 mi NW 9.2 mph - N/A Fog Fog
11:02 PM 53.6 °F - 53.6 °F 100% 30.08 in 0.5 mi NW 6.9 mph - N/A Fog Fog
11:53 PM 54.0 °F - 53.1 °F 97% 30.06 in 0.5 mi NNW 9.2 mph - N/A Fog Fog